sat.trackr.live / text

‹ back to catalog

STARLINK-1558

NORAD 46035 · 2020-055J

PAYLOAD ACTIVE UNKNOWN

§ Identity

Operator
Country
US
Launch date
2020-08-07
Launch site
AFETR
Launch vehicle
Mass (kg)
RCS (m²)

Purposes: comms

External: N2YO · Heavens-Above · Gunter

§ Orbital elements

Epoch: 2026-05-25T02:35:35.009376Z

Period
94.11 min
Inclination
53.1600°
Eccentricity
0.0001266
Mean motion
15.30195320 rev/d
Perigee alt
474.4 km
Apogee alt
476.1 km
Semi-major
6,853.4 km
B*
4.9800e-5
RAAN
131.7551°
Arg perigee
94.6357°
Mean anomaly
265.4788°
Rev number
32,059

§ Raw data

STARLINK-15581 46035U 20055J   26145.10804409  .00001116  00000+0  49800-4 0  99972 46035  53.1600 131.7551 0001266  94.6357 265.4788 15.30195320320595

JSON: /api/v1/satellites/46035 · /tle

For live sub-satellite position, see the globe view (requires WebGL).

§ Visibility from observer

Set your observer location to see the next 7 days of passes ≥ 10°. The values pass through the URL so the page stays shareable.

No JS? Fill the form by hand. The geolocation button needs JavaScript.